Regional Weather Roundup
Issued by NWS

Home | Current Version | Previous Version | Text Only | Print | Product List | Glossary Off
Versions: 1 2 3 4 5 6 7 8 9 10 11 12 13 14 15 16 17 18 19 20 21 22 23 24 25 26 27 28 29 30 31 32 33 34 35 36 37 38 39 40 41 42 43 44 45 46 47 48 49 50

784
ASUS43 KBIS 182110
RWRND

NORTH DAKOTA REGIONAL WEATHER ROUNDUP
NATIONAL WEATHER SERVICE BISMARCK ND
400 PM CDT FRI AUG 18 2017

NOTE: "FAIR" INDICATES FEW OR NO CLOUDS BELOW 12,000 FEET WITH NO
SIGNIFICANT WEATHER AND/OR OBSTRUCTIONS TO VISIBILITY.


NDZ001>003-009>011-017-182200-
NORTHWEST NORTH DAKOTA

CITY           SKY/WX    TMP DP  RH WIND       PRES   REMARKS
WILLISTON      SUNNY     83  52  34 S9        29.91F
MINOT          SUNNY     83  48  29 NW13      29.90S
MINOT AFB      SUNNY     82  44  25 NW13G18   29.88S
$$

NDZ018>021-031>035-040>046-182200-
SOUTHWEST NORTH DAKOTA

CITY           SKY/WX    TMP DP  RH WIND       PRES   REMARKS
BISMARCK       SUNNY     83  53  35 NW10G18   29.94F
DICKINSON      MOSUNNY   83  47  28 NW6       29.95F
GARRISON         N/A     80  50  34 NW9G23    29.92F
HETTINGER ARPT SUNNY     82  46  28 W8        29.98F
$$

NDZ004>008-012>016-024-026-027-054-182200-
NORTHEAST NORTH DAKOTA

CITY           SKY/WX    TMP DP  RH WIND       PRES   REMARKS
GRAND FORKS    MOSUNNY   82  60  47 NW6       29.83F
GRND FRKS AFB  SUNNY     81  59  46 W6        29.84F
DEVILS LAKE    SUNNY     78  53  41 NW12      29.89F
$$

NDZ022-023-025-028>030-036>039-047>053-182200-
SOUTHEAST NORTH DAKOTA

CITY           SKY/WX    TMP DP  RH WIND       PRES   REMARKS
FARGO          SUNNY     78  64  61 W12       29.86R
JAMESTOWN      SUNNY     75  60  59 W7        29.91F
$$





USA.gov is the U.S. government's official web portal to all federal, state and local government web resources and services.